Time,TemperatureF,DewpointF,PressureIn,WindDirection,WindDirectionDegrees,WindSpeedMPH,WindSpeedGustMPH,Humidity,HourlyPrecipIn,Conditions,Clouds,dailyrainin,SoftwareType,DateUTC
2013-05-11 00:02:00,59.0,45.0,30.06,NE,34,2.0,8.0,60,0.00,,,0.00,,2013-05-11 05:02:00,
2013-05-11 00:12:00,59.0,45.0,30.06,NE,34,2.0,8.0,60,0.00,,,0.00,,2013-05-11 05:12:00,
2013-05-11 00:21:00,58.0,45.0,30.06,NNE,17,3.0,8.0,61,0.00,,,0.00,,2013-05-11 05:21:00,
2013-05-11 00:32:00,58.0,45.0,30.06,NE,40,3.0,6.0,62,0.00,,,0.00,,2013-05-11 05:32:00,
2013-05-11 00:42:00,58.0,45.0,30.06,NE,40,3.0,6.0,62,0.00,,,0.00,,2013-05-11 05:42:00,
2013-05-11 00:52:00,57.0,45.0,30.07,North,360,4.0,6.0,65,0.00,,,0.00,,2013-05-11 05:52:00,
2013-05-11 01:02:00,57.0,46.0,30.08,NNE,17,2.0,6.0,66,0.00,,,0.00,,2013-05-11 06:02:00,
2013-05-11 01:12:00,57.0,46.0,30.08,NNE,17,2.0,6.0,66,0.00,,,0.00,,2013-05-11 06:12:00,
2013-05-11 01:21:00,57.0,46.0,30.08,NNE,26,4.0,8.0,66,0.00,,,0.00,,2013-05-11 06:21:00,
2013-05-11 01:32:00,58.0,46.0,30.08,NE,40,4.0,10.0,64,0.00,,,0.00,,2013-05-11 06:32:00,
2013-05-11 01:42:00,57.0,45.0,30.09,North,10,3.0,7.0,65,0.00,,,0.00,,2013-05-11 06:42:00,
2013-05-11 01:52:00,57.0,45.0,30.09,North,10,3.0,7.0,65,0.00,,,0.00,,2013-05-11 06:52:00,
2013-05-11 02:02:00,57.0,45.0,30.09,NNE,32,4.0,9.0,65,0.00,,,0.00,,2013-05-11 07:02:00,
2013-05-11 02:11:00,57.0,45.0,30.09,NNE,32,4.0,9.0,65,0.00,,,0.00,,2013-05-11 07:11:00,
2013-05-11 02:21:00,57.0,45.0,30.09,NW,318,2.0,6.0,65,0.00,,,0.00,,2013-05-11 07:21:00,
2013-05-11 02:32:00,57.0,45.0,30.10,NE,36,3.0,9.0,64,0.00,,,0.00,,2013-05-11 07:32:00,
2013-05-11 02:42:00,57.0,45.0,30.10,NE,36,3.0,9.0,64,0.00,,,0.00,,2013-05-11 07:42:00,
2013-05-11 02:52:00,57.0,44.0,30.10,North,5,3.0,8.0,62,0.00,,,0.00,,2013-05-11 07:52:00,
2013-05-11 03:01:00,57.0,44.0,30.10,North,5,0.0,6.0,62,0.00,,,0.00,,2013-05-11 08:01:00,
2013-05-11 03:12:00,57.0,44.0,30.10,North,5,0.0,6.0,62,0.00,,,0.00,,2013-05-11 08:12:00,
2013-05-11 03:21:00,56.0,43.0,30.11,WNW,298,3.0,6.0,62,0.00,,,0.00,,2013-05-11 08:21:00,
2013-05-11 03:31:00,56.0,43.0,30.11,WNW,289,3.0,8.0,61,0.00,,,0.00,,2013-05-11 08:31:00,
2013-05-11 03:42:00,55.0,42.0,30.12,North,5,2.0,7.0,61,0.00,,,0.00,,2013-05-11 08:42:00,
2013-05-11 03:52:00,55.0,42.0,30.12,North,5,2.0,7.0,61,0.00,,,0.00,,2013-05-11 08:52:00,
2013-05-11 04:01:00,54.0,41.0,30.12,NE,45,3.0,8.0,62,0.00,,,0.00,,2013-05-11 09:01:00,
2013-05-11 04:11:00,54.0,41.0,30.12,NE,45,3.0,8.0,62,0.00,,,0.00,,2013-05-11 09:11:00,
2013-05-11 04:21:00,54.0,41.0,30.12,NE,42,3.0,7.0,61,0.00,,,0.00,,2013-05-11 09:21:00,
2013-05-11 04:32:00,53.0,39.0,30.14,NE,46,2.0,7.0,60,0.00,,,0.00,,2013-05-11 09:32:00,
2013-05-11 04:42:00,53.0,39.0,30.14,NE,46,2.0,7.0,60,0.00,,,0.00,,2013-05-11 09:42:00,
2013-05-11 04:52:00,53.0,39.0,30.14,ENE,66,1.0,7.0,60,0.00,,,0.00,,2013-05-11 09:52:00,
2013-05-11 05:03:00,52.0,39.0,30.14,NE,55,4.0,8.0,60,0.00,,,0.00,,2013-05-11 10:03:00,
2013-05-11 05:12:00,52.0,39.0,30.14,NE,55,4.0,8.0,60,0.00,,,0.00,,2013-05-11 10:12:00,
2013-05-11 05:22:00,52.0,39.0,30.14,NE,55,4.0,8.0,60,0.00,,,0.00,,2013-05-11 10:22:00,
2013-05-11 05:33:00,51.0,38.0,30.16,NE,48,0.0,3.0,62,0.00,,,0.00,,2013-05-11 10:33:00,
2013-05-11 05:42:00,51.0,38.0,30.16,NE,48,0.0,3.0,62,0.00,,,0.00,,2013-05-11 10:42:00,
2013-05-11 05:53:00,50.0,38.0,30.17,NE,48,0.0,3.0,63,0.00,,,0.00,,2013-05-11 10:53:00,
2013-05-11 06:02:00,49.0,37.0,30.17,NNE,14,1.0,5.0,62,0.00,,,0.00,,2013-05-11 11:02:00,
2013-05-11 06:12:00,49.0,37.0,30.17,NNE,14,1.0,5.0,62,0.00,,,0.00,,2013-05-11 11:12:00,
2013-05-11 06:21:00,49.0,37.0,30.18,North,360,0.0,4.0,64,0.00,,,0.00,,2013-05-11 11:21:00,
2013-05-11 06:32:00,47.0,37.0,30.19,West,262,1.0,4.0,67,0.00,,,0.00,,2013-05-11 11:32:00,
2013-05-11 06:42:00,47.0,37.0,30.19,West,262,1.0,4.0,67,0.00,,,0.00,,2013-05-11 11:42:00,
2013-05-11 06:52:00,46.0,36.0,30.20,ESE,118,0.0,3.0,67,0.00,,,0.00,,2013-05-11 11:52:00,
2013-05-11 07:01:00,46.0,37.0,30.22,NNE,22,2.0,5.0,70,0.00,,,0.00,,2013-05-11 12:01:00,
2013-05-11 07:11:00,46.0,37.0,30.22,NNE,22,2.0,5.0,70,0.00,,,0.00,,2013-05-11 12:11:00,
2013-05-11 07:22:00,46.0,36.0,30.22,North,5,1.0,4.0,69,0.00,,,0.00,,2013-05-11 12:22:00,
2013-05-11 07:32:00,47.0,37.0,30.23,NNE,19,5.0,10.0,67,0.00,,,0.00,,2013-05-11 12:32:00,
2013-05-11 07:42:00,47.0,37.0,30.23,NNE,19,5.0,10.0,67,0.00,,,0.00,,2013-05-11 12:42:00,
2013-05-11 07:52:00,48.0,36.0,30.24,North,5,4.0,10.0,63,0.00,,,0.00,,2013-05-11 12:52:00,
2013-05-11 08:01:00,49.0,37.0,30.25,NNE,15,4.0,8.0,62,0.00,,,0.00,,2013-05-11 13:01:00,
2013-05-11 08:11:00,49.0,37.0,30.25,NNE,15,4.0,8.0,62,0.00,,,0.00,,2013-05-11 13:11:00,
2013-05-11 08:21:00,50.0,36.0,30.25,NE,49,6.0,12.0,58,0.00,,,0.00,,2013-05-11 13:21:00,
2013-05-11 08:32:00,50.0,34.0,30.26,NE,40,7.0,16.0,53,0.00,,,0.00,,2013-05-11 13:32:00,
2013-05-11 08:42:00,50.0,34.0,30.26,NE,40,7.0,16.0,53,0.00,,,0.00,,2013-05-11 13:42:00,
2013-05-11 08:52:00,51.0,35.0,30.26,NE,42,6.0,12.0,54,0.00,,,0.00,,2013-05-11 13:52:00,
2013-05-11 09:02:00,51.0,33.0,30.26,NNE,23,8.0,15.0,50,0.00,,,0.00,,2013-05-11 14:02:00,
2013-05-11 09:11:00,51.0,33.0,30.26,NNE,23,8.0,15.0,50,0.00,,,0.00,,2013-05-11 14:11:00,
2013-05-11 09:21:00,51.0,31.0,30.27,NE,40,5.0,16.0,46,0.00,,,0.00,,2013-05-11 14:21:00,
2013-05-11 09:32:00,52.0,31.0,30.27,NE,46,7.0,15.0,44,0.00,,,0.00,,2013-05-11 14:32:00,
2013-05-11 09:41:00,52.0,31.0,30.27,NE,46,7.0,15.0,44,0.00,,,0.00,,2013-05-11 14:41:00,
2013-05-11 09:51:00,52.0,31.0,30.27,NE,46,7.0,15.0,44,0.00,,,0.00,,2013-05-11 14:51:00,
2013-05-11 10:01:00,53.0,29.0,30.27,NNE,28,8.0,15.0,39,0.00,,,0.00,,2013-05-11 15:01:00,
2013-05-11 10:11:00,53.0,29.0,30.27,NNE,28,8.0,15.0,39,0.00,,,0.00,,2013-05-11 15:11:00,
2013-05-11 10:21:00,54.0,26.0,30.26,NNE,13,7.0,14.0,34,0.00,,,0.00,,2013-05-11 15:21:00,
2013-05-11 10:32:00,56.0,27.0,30.26,NNE,31,6.0,15.0,32,0.00,,,0.00,,2013-05-11 15:32:00,
2013-05-11 10:43:00,56.0,27.0,30.26,NNE,31,6.0,15.0,32,0.00,,,0.00,,2013-05-11 15:43:00,
2013-05-11 10:53:00,55.0,26.0,30.27,NNE,13,9.0,17.0,33,0.00,,,0.00,,2013-05-11 15:53:00,
2013-05-11 11:02:00,55.0,26.0,30.27,NNE,13,9.0,17.0,33,0.00,,,0.00,,2013-05-11 16:02:00,
2013-05-11 11:12:00,55.0,26.0,30.27,NNE,13,9.0,17.0,33,0.00,,,0.00,,2013-05-11 16:12:00,
2013-05-11 11:22:00,56.0,27.0,30.28,ENE,71,8.0,17.0,32,0.00,,,0.00,,2013-05-11 16:22:00,
2013-05-11 11:33:00,56.0,27.0,30.27,NNE,30,7.0,13.0,33,0.00,,,0.00,,2013-05-11 16:33:00,
2013-05-11 11:42:00,56.0,27.0,30.27,NNE,30,7.0,13.0,33,0.00,,,0.00,,2013-05-11 16:42:00,
2013-05-11 11:52:00,57.0,27.0,30.27,NNE,12,6.0,14.0,32,0.00,,,0.00,,2013-05-11 16:52:00,
2013-05-11 12:02:00,58.0,26.0,30.27,NNE,30,6.0,20.0,29,0.00,,,0.00,,2013-05-11 17:02:00,
2013-05-11 12:12:00,58.0,26.0,30.27,NNE,30,6.0,20.0,29,0.00,,,0.00,,2013-05-11 17:12:00,
2013-05-11 12:22:00,59.0,27.0,30.27,NNE,22,11.0,16.0,29,0.00,,,0.00,,2013-05-11 17:22:00,
2013-05-11 12:32:00,59.0,28.0,30.27,NNE,21,9.0,17.0,30,0.00,,,0.00,,2013-05-11 17:32:00,
2013-05-11 12:42:00,59.0,28.0,30.27,NNE,21,9.0,17.0,30,0.00,,,0.00,,2013-05-11 17:42:00,
2013-05-11 12:52:00,59.0,28.0,30.27,NNE,33,10.0,19.0,30,0.00,,,0.00,,2013-05-11 17:52:00,
2013-05-11 13:01:00,59.0,28.0,30.26,NE,38,8.0,18.0,31,0.00,,,0.00,,2013-05-11 18:01:00,
2013-05-11 13:11:00,59.0,28.0,30.26,NE,38,8.0,18.0,31,0.00,,,0.00,,2013-05-11 18:11:00,
2013-05-11 13:21:00,60.0,28.0,30.26,NNE,32,8.0,14.0,29,0.00,,,0.00,,2013-05-11 18:21:00,
2013-05-11 13:32:00,61.0,29.0,30.25,North,360,9.0,16.0,29,0.00,,,0.00,,2013-05-11 18:32:00,
2013-05-11 13:42:00,61.0,29.0,30.25,North,360,9.0,16.0,29,0.00,,,0.00,,2013-05-11 18:42:00,
2013-05-11 13:51:00,61.0,27.0,30.25,NNE,16,8.0,15.0,27,0.00,,,0.00,,2013-05-11 18:51:00,
2013-05-11 14:02:00,62.0,28.0,30.24,NE,38,8.0,15.0,27,0.00,,,0.00,,2013-05-11 19:02:00,
2013-05-11 14:11:00,62.0,28.0,30.24,NE,38,8.0,15.0,27,0.00,,,0.00,,2013-05-11 19:11:00,
2013-05-11 14:21:00,62.0,28.0,30.24,NE,36,7.0,17.0,27,0.00,,,0.00,,2013-05-11 19:21:00,
2013-05-11 14:32:00,62.0,29.0,30.24,NNE,13,6.0,14.0,28,0.00,,,0.00,,2013-05-11 19:32:00,
2013-05-11 14:42:00,62.0,29.0,30.24,NNE,13,6.0,14.0,28,0.00,,,0.00,,2013-05-11 19:42:00,
2013-05-11 14:52:00,63.0,29.0,30.23,NNE,32,9.0,16.0,27,0.00,,,0.00,,2013-05-11 19:52:00,
2013-05-11 15:02:00,63.0,29.0,30.23,NNE,30,7.0,12.0,27,0.00,,,0.00,,2013-05-11 20:02:00,
2013-05-11 15:12:00,63.0,29.0,30.23,NNE,30,7.0,12.0,27,0.00,,,0.00,,2013-05-11 20:12:00,
2013-05-11 15:22:00,63.0,29.0,30.22,NNE,27,4.0,12.0,27,0.00,,,0.00,,2013-05-11 20:22:00,
2013-05-11 15:32:00,63.0,27.0,30.22,NW,304,5.0,13.0,25,0.00,,,0.00,,2013-05-11 20:32:00,
2013-05-11 15:42:00,63.0,27.0,30.22,NW,304,5.0,13.0,25,0.00,,,0.00,,2013-05-11 20:42:00,
2013-05-11 15:52:00,64.0,28.0,30.22,North,350,7.0,16.0,26,0.00,,,0.00,,2013-05-11 20:52:00,
2013-05-11 16:02:00,64.0,27.0,30.21,NNE,14,3.0,13.0,25,0.00,,,0.00,,2013-05-11 21:02:00,
2013-05-11 16:11:00,64.0,27.0,30.21,NNE,14,3.0,13.0,25,0.00,,,0.00,,2013-05-11 21:11:00,
2013-05-11 16:21:00,65.0,29.0,30.21,NNE,22,7.0,18.0,26,0.00,,,0.00,,2013-05-11 21:21:00,
2013-05-11 16:33:00,64.0,27.0,30.20,North,355,7.0,15.0,25,0.00,,,0.00,,2013-05-11 21:33:00,
2013-05-11 16:43:00,64.0,27.0,30.20,North,355,7.0,15.0,25,0.00,,,0.00,,2013-05-11 21:43:00,
2013-05-11 16:52:00,65.0,28.0,30.19,NNE,24,2.0,11.0,25,0.00,,,0.00,,2013-05-11 21:52:00,
2013-05-11 17:02:00,65.0,28.0,30.18,NNE,26,4.0,11.0,25,0.00,,,0.00,,2013-05-11 22:02:00,
2013-05-11 17:13:00,65.0,28.0,30.18,NNE,26,4.0,11.0,25,0.00,,,0.00,,2013-05-11 22:13:00,
2013-05-11 17:23:00,66.0,29.0,30.17,North,351,6.0,12.0,25,0.00,,,0.00,,2013-05-11 22:23:00,
2013-05-11 17:33:00,65.0,27.0,30.17,North,355,5.0,16.0,24,0.00,,,0.00,,2013-05-11 22:33:00,
2013-05-11 17:42:00,65.0,27.0,30.17,North,355,5.0,16.0,24,0.00,,,0.00,,2013-05-11 22:42:00,
2013-05-11 17:52:00,66.0,28.0,30.17,North,9,5.0,13.0,24,0.00,,,0.00,,2013-05-11 22:52:00,
2013-05-11 18:02:00,66.0,28.0,30.17,NNE,25,6.0,10.0,24,0.00,,,0.00,,2013-05-11 23:02:00,
2013-05-11 18:12:00,66.0,28.0,30.17,NNE,25,6.0,10.0,24,0.00,,,0.00,,2013-05-11 23:12:00,
2013-05-11 18:22:00,66.0,29.0,30.16,North,360,3.0,8.0,25,0.00,,,0.00,,2013-05-11 23:22:00,
2013-05-11 18:32:00,66.0,29.0,30.16,NNE,31,4.0,9.0,25,0.00,,,0.00,,2013-05-11 23:32:00,
2013-05-11 18:42:00,66.0,29.0,30.16,NNE,31,4.0,9.0,25,0.00,,,0.00,,2013-05-11 23:42:00,
2013-05-11 18:52:00,66.0,29.0,30.16,NNE,31,4.0,11.0,25,0.00,,,0.00,,2013-05-11 23:52:00,
2013-05-11 19:01:00,66.0,28.0,30.16,ENE,63,3.0,12.0,24,0.00,,,0.00,,2013-05-12 00:01:00,
2013-05-11 19:11:00,66.0,28.0,30.16,ENE,63,3.0,12.0,24,0.00,,,0.00,,2013-05-12 00:11:00,
2013-05-11 19:21:00,66.0,27.0,30.15,NE,46,4.0,7.0,23,0.00,,,0.00,,2013-05-12 00:21:00,
2013-05-11 19:32:00,65.0,29.0,30.15,NNE,29,4.0,8.0,26,0.00,,,0.00,,2013-05-12 00:32:00,
2013-05-11 19:42:00,65.0,29.0,30.15,NNE,29,4.0,8.0,26,0.00,,,0.00,,2013-05-12 00:42:00,
2013-05-11 19:52:00,65.0,28.0,30.15,NNE,16,3.0,7.0,25,0.00,,,0.00,,2013-05-12 00:52:00,
2013-05-11 20:01:00,65.0,27.0,30.14,ENE,75,3.0,6.0,24,0.00,,,0.00,,2013-05-12 01:01:00,
2013-05-11 20:11:00,65.0,27.0,30.14,ENE,75,3.0,6.0,24,0.00,,,0.00,,2013-05-12 01:11:00,
2013-05-11 20:21:00,64.0,27.0,30.14,NE,44,2.0,7.0,25,0.00,,,0.00,,2013-05-12 01:21:00,
2013-05-11 20:32:00,64.0,27.0,30.14,ENE,61,1.0,4.0,25,0.00,,,0.00,,2013-05-12 01:32:00,
2013-05-11 20:42:00,64.0,27.0,30.14,ENE,61,1.0,4.0,25,0.00,,,0.00,,2013-05-12 01:42:00,
2013-05-11 20:52:00,63.0,27.0,30.14,ENE,69,1.0,5.0,25,0.00,,,0.00,,2013-05-12 01:52:00,
2013-05-11 21:01:00,61.0,28.0,30.14,SE,143,0.0,5.0,28,0.00,,,0.00,,2013-05-12 02:01:00,
2013-05-11 21:11:00,61.0,28.0,30.14,SE,143,0.0,5.0,28,0.00,,,0.00,,2013-05-12 02:11:00,
2013-05-11 21:22:00,60.0,28.0,30.14,SE,141,0.0,3.0,30,0.00,,,0.00,,2013-05-12 02:22:00,
2013-05-11 21:32:00,58.0,29.0,30.14,SE,127,0.0,4.0,33,0.00,,,0.00,,2013-05-12 02:32:00,
2013-05-11 21:42:00,58.0,29.0,30.14,SE,127,0.0,4.0,33,0.00,,,0.00,,2013-05-12 02:42:00,
2013-05-11 21:52:00,58.0,29.0,30.14,SE,127,0.0,4.0,33,0.00,,,0.00,,2013-05-12 02:52:00,
2013-05-11 22:01:00,55.0,30.0,30.15,SE,132,2.0,4.0,38,0.00,,,0.00,,2013-05-12 03:01:00,
2013-05-11 22:11:00,55.0,30.0,30.15,SE,132,2.0,4.0,38,0.00,,,0.00,,2013-05-12 03:11:00,
2013-05-11 22:22:00,54.0,31.0,30.15,SE,134,0.0,3.0,41,0.00,,,0.00,,2013-05-12 03:22:00,
2013-05-11 22:33:00,53.0,30.0,30.15,SE,134,1.0,3.0,41,0.00,,,0.00,,2013-05-12 03:33:00,
2013-05-11 22:43:00,53.0,30.0,30.15,SE,134,1.0,3.0,41,0.00,,,0.00,,2013-05-12 03:43:00,
2013-05-11 22:53:00,53.0,31.0,30.16,SE,127,0.0,5.0,43,0.00,,,0.00,,2013-05-12 03:53:00,
2013-05-11 23:02:00,-999.0,-99.9,30.16,SE,127,0.0,2.0,44,0.00,,,0.00,,2013-05-12 04:02:00,
2013-05-11 23:12:00,52.0,31.0,30.16,SE,127,0.0,2.0,44,0.00,,,0.00,,2013-05-12 04:12:00,
2013-05-11 23:22:00,52.0,31.0,30.16,SE,127,0.0,3.0,44,0.00,,,0.00,,2013-05-12 04:22:00,
2013-05-11 23:33:00,51.0,31.0,30.16,SE,127,0.0,2.0,46,0.00,,,0.00,,2013-05-12 04:33:00,
2013-05-11 23:43:00,51.0,31.0,30.16,SE,127,0.0,2.0,46,0.00,,,0.00,,2013-05-12 04:43:00,
2013-05-11 23:52:00,50.0,32.0,30.16,SE,127,0.0,2.0,49,0.00,,,0.00,,2013-05-12 04:52:00,